Voltar ao catálogo

FENGYUN 1C DEB

AtivoSSO
NORAD 35090·DEBRIS·🇨🇳 China

Lançado May 10, 1999 de Taiyuan Satellite Launch Center

Loading…

Próximas Passagens (próximas 24 horas)

TLE

AtualizadoSource: Space-Track

Época: Sep 14, 2026, 01:18 UTC

1 35090U 99025DJS 26257.05420219  .00001556  00000-0  75854-3 0  9996
2 35090  99.1859 284.5523 0053807 316.4489  43.2443 14.18943578701533

Acompanhe FENGYUN 1C DEB em tempo real com AllMySat

Download on the App Store